Tracking 20041 objects as of 22-Nov-2019
Live streaming from Space Station
objects crossing your sky now

ARIANE 2 DEB

Track ARIANE 2 DEB now!


NORAD ID: 26727
Int'l Code: 1989-006E
Perigee: 566.8 km
Apogee: 35,467.8 km
Inclination: 8.4 °
Period: 631.7 minutes
Semi major axis: 24388 km
RCS: 0.356 m2 (medium)
Launch date: January 27, 1989
Source: France (FR)
Launch site: FRENCH GUIANA (FRGUI)

Note: This is SATELLITE DEBRIS
aabbcc
Your satellite tracking list
Your tracking list is empty




NASA's NSSDC Master Catalog

Two Line Element Set (TLE):
1 26727U 89006E   19325.76743347 +.00000189 +00000-0 +18602-2 0  9995
2 26727 008.3798 306.6454 7155271 015.3384 185.2166 02.27945091156865
Source of the keplerian elements: AFSPC